Location: Newark
(51.1667°N, 4.4833°E)
Time: 22:13:04
(UTC+00:00)

nSIGHT-1 - Visible Passes

Search period start: 14 December 2019 00:00
Search period end: 24 December 2019 00:00
Orbit: 325 x 328 km, 51.6° (Epoch: 14 December)

Date Brightness Start Highest point End Pass type
(mag) Time Alt. Az. Time Alt. Az. Time Alt. Az.
14 Dec ? 05:43:36 33° SSW 05:44:28 49° SSE 05:47:11 10° E visible
15 Dec ? 04:29:46 10° E 04:29:46 10° E 04:29:49 10° E visible
15 Dec ? 06:00:51 30° WSW 06:02:01 80° S 06:04:49 10° E visible
16 Dec ? 04:46:50 16° E 04:46:50 16° E 04:47:34 10° E visible
16 Dec ? 06:17:54 21° W 06:19:34 80° N 06:22:22 10° E visible
17 Dec ? 05:03:45 25° E 05:03:45 25° E 05:05:04 10° E visible
17 Dec ? 06:34:48 14° W 06:37:04 80° N 06:39:51 10° E visible
18 Dec ? 05:20:31 40° ENE 05:20:31 40° ENE 05:22:28 10° E visible
18 Dec ? 06:51:41 10° W 06:54:28 81° SSW 06:57:15 10° ESE visible
19 Dec ? 05:37:11 73° NE 05:37:11 73° NE 05:39:48 10° E visible
20 Dec ? 05:53:46 55° W 05:54:16 88° SSW 05:57:03 10° ESE visible
21 Dec ? 04:39:14 12° E 04:39:14 12° E 04:39:28 10° E visible
21 Dec ? 06:10:15 30° W 06:11:24 59° SSW 06:14:08 10° ESE visible
22 Dec ? 04:55:40 18° E 04:55:40 18° E 04:56:33 10° E visible
22 Dec ? 06:26:41 17° W 06:28:22 33° SSW 06:30:54 10° SE visible
23 Dec ? 05:12:03 28° ESE 05:12:03 28° ESE 05:13:32 10° ESE visible
23 Dec ? 06:43:11 10° W 06:45:08 18° SW 06:47:06 10° S visible
